Location: Limerick
(52.6650°N, 8.6230°W)
Time: 03:33:10
(UTC+01:00)

ISS - Pass Details

Date: 30 March 2017
Orbit: 401 x 409 km, 51.6° (Epoch: 01 May)

Event Time Altitude Azimuth Distance (km) Brightness Sun altitude
Rises 22:46:46 0° 257° (WSW) 2,322 0.5 -22.7°
Reaches altitude 10° 22:48:50 10° 255° (WSW) 1,465 -0.6 -22.9°
Enters shadow 22:50:13 23° 250° (WSW) 919 -1.8 -23.0°
